User: anonymous   Login
Location: *
(37.5724°S, 58.0067°E)
Time: 22:58:09
(UTC+00:00)
Language:

OAO 2 Rocket - Orbit

View from above orbital plane
View from above orbital plane
View from above satellite
View from above satellite

Ground track
Ground track

The orbit data is extracted from the following two-line orbital elements,

1  3598U 68110B   20332.52893395 +.00000099 +00000-0 +27479-4 0  9996
2  3598 034.9944 064.7945 0049435 003.9056 356.2015 14.54496192729019
Epoch (UTC): 27 November 2020 12:41:39
Eccentricity: 0.0049435
inclination: 34.9944°
perigee height: 676 km
apogee height: 746 km
right ascension of ascending node: 64.7945°
argument of perigee: 3.9056°
revolutions per day: 14.54496192
mean anomaly at epoch: 356.2015°
orbit number at epoch: 72901

The dashed part of the orbit path shows where the satellite is in the earth's shadow,  

DLR